Skip Page Navigation
NASA JPL Caltech
NASA Logo - Jet Propulsion Laboratory + View the NASA Portal
+ Center for Near-Earth Object Studies
JPL Home Earth Solar System Stars & Galaxies Technology
JPL Solar System Dynamics
BODIES ORBITS EPHEMERIDES TOOLS PHYSICAL DATA DISCOVERY FAQ SITE MAP
IMPORTANT: The SSD Announcement email list is now available. Major changes are coming in the near future, including possible hostname and/or URL changes. To be notified of such changes, subscribe to this email list.

Please visit this page for more details.


JPL Small-Body Database Browser
Search: [ help ]  
288 Glauke
Classification: Main-belt Asteroid          SPK-ID: 2000288
Ephemeris | Orbit Diagram | Orbital Elements | Mission Design | Physical Parameters | Discovery Circumstances | Close-Approach Data ]

[ show orbit diagram ]
Orbital Elements at Epoch 2458600.5 (2019-Apr-27.0) TDB
Reference: JPL 37 (heliocentric ecliptic J2000)
 Element Value Uncertainty (1-sigma)   Units 
e .2053926321153688 3.384e-08  
a 2.761785977583854 6.3201e-09 au
q 2.194535486308589 9.277e-08 au
i 4.336077435390653 4.3091e-06 deg
node 120.1104643712666 5.2428e-05 deg
peri 84.98537894981479 5.3462e-05 deg
M 30.91424490297753 1.1186e-05 deg
tp 2458456.540741993164
(2018-Dec-04.04074199)
5.1992e-05 TDB
period 1676.422408022951
4.59
5.7546e-06
1.576e-08
d
yr
n .2147430136206288 7.3714e-10 deg/d
Q 3.329036468859119 7.6183e-09 au
  Orbit Determination Parameters
   # obs. used (total)      2827  
   data-arc span      46810 days (128.16 yr)  
   first obs. used      1891-08-27  
   last obs. used      2019-10-25  
   planetary ephem.      DE431  
   SB-pert. ephem.      SB431-N16  
   condition code      0  
   norm. resid. RMS      .47251  
   source      ORB  
   producer      Otto Matic  
   solution date      2019-Nov-07 01:51:46  

Additional Information
 Earth MOID = 1.19619 au 
 Jupiter MOID = 1.64477 au 
 T_jup = 3.306 
[ show covariance matrix ]

Ephemeris | Orbit Diagram | Orbital Elements | Mission Design | Physical Parameters | Discovery Circumstances | Close-Approach Data ]

Physical Parameter Table
Parameter Symbol Value Units Sigma Reference Notes
absolute magnitude H 9.8   n/a MPO492752 IRAS observations used: 2
diameter diameter 28.981 km 0.571 urn:nasa:pds:neowise_diameters_albedos::2.0[mainbelt] (http://adsabs.harvard.edu/abs/2014ApJ...791..121M)  
rotation period rot_per 1170. h n/a LCDB (Rev. 2019-January); Warner et al., 2009 Published Reference List:
[Harris, A.W. (1983) Sky Telescope 65, 504.]
[Harris, A.W.; Young, J.W.; Bowell, E.; Tholen, D.J. (1999) Icarus 142, 173-201.]
[Ostro, S.J.; Nolan, M.C.; Margot, J.-L.; Magri, C.; et al. (2001) Icarus 152, 201-204.]
[Pilcher, F. (2015) Minor Planet Bull. 42, 6-10.]
geometric albedo albedo 0.175   0.030 urn:nasa:pds:neowise_diameters_albedos::2.0[mainbelt] (http://adsabs.harvard.edu/abs/2012ApJ...759L...8M)  
B-V BV 0.845   0.016 EAR-A-5-DDR-UBV-MEAN-VALUES-V1.2 #obs=4; phase (min.=8.74, mean=14.23, max.=17.34) deg.
U-B UB 0.407   0.057 EAR-A-5-DDR-UBV-MEAN-VALUES-V1.2 #obs=4; phase (min.=8.74, mean=14.23, max.=17.34) deg.
Tholen spectral type spec_T S   n/a EAR-A-5-DDR-TAXONOMY-V4.0 used 7 color indices
SMASSII spectral type spec_B S   n/a EAR-A-5-DDR-TAXONOMY-V4.0 based on a high-resolution spectrum by Xu et al. (1995) or Bus and Binzel (2002)

288 Glauke          Discovered 1890-Feb-20 by Luther, R. at Dusseldorf
Reference: DISCOVERY.DBLast Updated: 2003-08-29

[ hide close-approach data ]
Close-Approach Data   ...sorted by Date/Time (TDB)
Date/Time (TDB) Time Uncertainty
(days_HH:MM)
Body Nominal Distance (au) Minimum Distance (au) Maximum Distance (au) V-relative (km/s) V-infinity (km/s) JD (TDB) Time Uncertainty (minutes) Semi-major axis (km) Semi-minor axis (km) range-LOV angle (deg) N-sigma BP Orbit Ref. Reference Modified
1915-Jan-19 01:19 < 00:01 Jupiter 1.97360551570179 1.97360469702848 1.97360633437486 2.31763733312897 2.12440401863104 2420516.555127149 0.991880347621412 57.7305820141714 12.3300808411117 -84.2766636529905 1881915.42956807 T 37 CATAB v2.0f-lin.ifort 2019-Nov-07 01:51:58 2019-Nov-07 01:51
1952-Sep-14 18:08 < 00:01 Jupiter 1.70746540609926 1.7074649421232 1.70746587008094 1.05086645266296 0.334933013479773 2434270.255873945 0.612536534305125 4745.92907927979 626.476239680923 -5.71590080565175 1701669.50249541 T 37 CATAB v2.0f-lin.ifort 2019-Nov-07 01:51:58 2019-Nov-07 01:51
1974-Nov-15 22:46 < 00:01 Jupiter 1.80032725164925 1.8003268324671 1.80032767083089 1.58901515938157 1.25857225521796 2442367.448886652 0.395406210377225 91.7387836923157 53.0251101632786 28.5955682351018 1901007.51972837 T 37 CATAB v2.0f-lin.ifort 2019-Nov-07 01:51:58 2019-Nov-07 01:51
2012-Jul-14 16:49 < 00:01 Jupiter 1.8522838538153 1.8522834576815 1.85228424994868 1.58541177897834 1.26449972081207 2456123.200615657 0.171330538936461 92.9005732325077 70.818609472047 -80.1474225510549 1975934.3098797 T 37 CATAB v2.0f-lin.ifort 2019-Nov-07 01:51:58 2019-Nov-07 01:51
2034-Sep-13 17:07 < 00:01 Jupiter 1.6780853050772 1.67808495305698 1.67808565709646 1.08736378636123 0.415751521165077 2464219.213449424 0.302313138257785 2464.0642090635 392.166466024212 2.87392006257958 1498996.0263933 T 37 CATAB v2.0f-lin.ifort 2019-Nov-07 01:51:58 2019-Nov-07 01:51
2094-Jul-09 07:20 < 00:01 Jupiter 1.63570056870736 1.63570025870411 1.63570087871061 0.8611552049215 n/a 2486067.805727137 0.873346993405718 61.2495954779035 15.323077883271 -88.0261909348987 15955640.9580558 F 37 CATAB v2.0f-lin.ifort 2019-Nov-07 01:51:58 2019-Nov-07 01:51
2154-May-07 01:28 00:02 Jupiter 1.68401349742162 1.6840128926859 1.68401410215829 0.975648602625519 n/a 2507918.561421047 1.50665683701738 90.7427136329711 20.4942021672012 -75.5078393770026 11918137.0693739 F 37 CATAB v2.0f-lin.ifort 2019-Nov-07 01:51:58 2019-Nov-07 01:51
2176-Jul-06 19:02 00:02 Jupiter 1.8492158251319 1.84921456968915 1.84921708057392 1.76206364572049 1.47945258947681 2516015.293288968 1.78848159310416 145.514828110524 35.6654975780341 55.2007844142774 1666326.38251865 T 37 CATAB v2.0f-lin.ifort 2019-Nov-07 01:51:58 2019-Nov-07 01:51

Alternate Designations
 1955 MO = 1959 GB = 1961 WF 
Ephemeris | Orbit Diagram | Orbital Elements | Mission Design | Physical Parameters | Discovery Circumstances | Close-Approach Data ]
ABOUT SSD CREDITS/AWARDS PRIVACY/COPYRIGHT GLOSSARY LINKS
FirstGov 2020-Jan-18 23:26 UT
(server date/time)  
NASA Home Page
Site Manager:   Ryan S. Park
Webmaster  Alan B. Chamberlin